Weather Roundup
Issued by NWS Springfield, MO

Home | Current Version | Previous Version | Text Only | Print | Product List | Glossary On
Versions: 1 2 3 4 5 6 7 8 9 10 11 12 13 14 15 16 17 18 19 20 21 22 23 24 25 26 27 28 29 30 31 32 33 34 35 36 37 38 39 40 41 42 43 44 45 46 47 48 49 50
000
NZUS99 KSGF 152007
HRRSGF

HOURLY WEATHER
NATIONAL WEATHER SERVICE SPRINGFIELD MO
200 PM CST MON JAN 15 2018

......SGF CWA......

CITY           SKY/WX    TMP DP  RH WIND       PRES   REMARKS
SPRINGFIELD    CLOUDY    17   8  67 N15       30.42R WCI   2
JOPLIN         CLOUDY    15   6  67 N16G23    30.51R WCI  -1
WEST PLAINS    CLOUDY    25  14  63 NW12      30.35R WCI  14
ROLLA          CLOUDY    15   4  61 W17G24    30.39R WCI  -1
OSAGE BEACH    PTSUNNY   18   5  57 NW10G17   30.45S WCI   6
BRANSON        LGT SNOW  23  18  80 NW9       30.40R VSB 1   WCI  13

......SURROUNDING SGF CWA......

CITY           SKY/WX    TMP DP  RH WIND       PRES   REMARKS
CHANUTE        CLOUDY    15   5  64 N16       30.55F WCI  -1
PARSONS        CLOUDY    15   7  70 N14G24    30.56F WCI   0
COFFEYVILLE    CLOUDY    16   7  67 N15       30.56F WCI   1
EMPORIA        CLOUDY    13   4  67 NW13G21   30.55F WCI  -2
GROVE OK       CLOUDY    19  10  68 NW15      30.50F WCI   5
ROGERS AR      CLOUDY    19  15  84 N7        30.43R WCI  10
SILOAM SPRINGS CLOUDY    20  14  77 N15       30.45R WCI   6
HARRISON AR    CLOUDY    25  21  85 NW12G18   30.38R WCI  14
NEAR YELLVILLE LGT SNOW  28  25  86 NW14      30.41R WCI  17

......KANSAS AND MISSOURI......

CITY           SKY/WX    TMP DP  RH WIND       PRES   REMARKS
KANSAS CTY INT PTSUNNY   11   0  61 NW15      30.52S WCI  -5
DOWNTOWN KC    MOSUNNY   13   0  56 W14       30.54F WCI  -2
COLUMBIA       MOSUNNY   13   0  56 W17G23    30.42S WCI  -4
SEDALIA        MOSUNNY   13   2  61 NW20G28   30.48R WCI  -5
ST JOSEPH        N/A    N/A N/A N/A MISG      30.56S
ST LOUIS       PTSUNNY   18   7  62 NW16G24   30.37R WCI   3
SPIRIT OF STL  CLOUDY    19   7  59 NW17      30.38R WCI   4
KIRKSVILLE     PTSUNNY    9  -1  64 W17G25    30.41S WCI  -9
WICHITA        CLOUDY    15   6  67 N20       30.57S WCI  -2
TOPEKA         PTSUNNY   14   2  58 NW16G25   30.58S WCI  -2
OLATHE         SUNNY     11   0  61 NW16G24   30.52R WCI  -6

......TENNESSEE......

CITY           SKY/WX    TMP DP  RH WIND       PRES   REMARKS
MEMPHIS        FAIR      44  28  53 NW8       30.35S
NASHVILLE      PTSUNNY   46  21  37 SW10      30.31S

......ARKANSAS.......

CITY           SKY/WX    TMP DP  RH WIND       PRES   REMARKS
FAYETTEVILLE   CLOUDY    25  19  78 NW15      30.42R WCI  13
FT SMITH       CLOUDY    37  24  59 N14       30.40R WCI  28
LITTLE ROCK    CLOUDY    47  26  44 NE5       30.34S

......OKLAHOMA.......

CITY           SKY/WX    TMP DP  RH WIND       PRES   REMARKS
TULSA          CLOUDY    24  14  65 N20       30.52R WCI  10
PONCA CITY     CLOUDY    20  10  65 N18       30.56S WCI   5
MCALESTER      CLOUDY    35  26  69 N17G25    30.43R WCI  25
OKLAHOMA CITY  CLOUDY    30  20  66 N21G33    30.46R WCI  17

......IOWA............

CITY           SKY/WX    TMP DP  RH WIND       PRES   REMARKS
DES MOINES     PTSUNNY    3  -7  63 NW25G33   30.46R BLWGSNOWWCI -20
QUAD CITIES    CLOUDY     9   1  70 W20G28    30.29R WCI -10

......ILLINOIS........

CITY           SKY/WX    TMP DP  RH WIND       PRES   REMARKS
QUINCY         PTSUNNY   10  -2  58 NW20      30.38R WCI  -9
CHICAGO        LGT SNOW  19  13  77 W14       30.15R WCI   6




USA.gov is the U.S. government's official web portal to all federal, state and local government web resources and services.